Other Public Products
Issued by NWS Grand Forks, ND

Home | Current Version | Previous Version | Text Only | Print | Product List | Glossary On
Versions: 1 2 3 4 5 6 7 8 9 10 11 12 13 14 15 16 17 18 19 20 21 22 23 24 25 26 27 28 29 30 31 32 33 34 35 36 37 38 39 40 41 42 43 44 45 46 47 48 49 50
000
FPUS83 KFGF 301231
OPUFGF
PRAIRIE TO PINES WEATHER ROUNDUP
NATIONAL WEATHER SERVICE EASTERN NORTH DAKOTA/GRAND FORKS ND
700 AM CDT THU JUL 30 2015

 **SATELLITE DATA USED TO AUGMENT SKY COVER AT AUTOMATED STATIONS**
 *****  WEATHER ACROSS EASTERN NORTH DAKOTA  *****

CITY           SKY/WX    TMP DP  RH WIND       PRES   REMARKS
GRAND FORKS    MOCLDY    63  56  78 W10       29.98R
6HR MIN TEMP:  61; 6HR MAX TEMP:  65;

GRAND FORKS AF PTCLDY    63  56  78 NW7       29.99R
GRAND CITY NWS   N/A     61 N/A N/A W5          N/A
BUXTON         NOT AVBL
DEVILS LAKE    MOCLDY    63  50  63 NW20G26   30.05R
6HR MIN TEMP:  61; 6HR MAX TEMP:  64;

FARGO          CLEAR     61  55  81 MISG      30.02R
6HR MIN TEMP:  59; 6HR MAX TEMP:  66;

WAHPETON ARPT  SUNNY     57  52  82 W6        30.06R
$$

 *****  WEATHER ACROSS CENTRAL AND WESTERN NORTH DAKOTA  *****

CITY           SKY/WX    TMP DP  RH WIND       PRES   REMARKS
JAMESTOWN      CLEAR     60  52  74 W8        30.08R
6HR MIN TEMP:  58; 6HR MAX TEMP:  64;

BISMARCK       CLEAR     57  49  74 NW13      30.14R
6HR MIN TEMP:  54; 6HR MAX TEMP:  60;

MINOT          CLOUDY    60  53  77 SW9       30.07S
6HR MIN TEMP:  59; 6HR MAX TEMP:  63; 6HR PCP: TRACE;

MINOT AFB      CLOUDY    59  58  99 W8        30.06S
6HR MIN TEMP:  57; 6HR MAX TEMP:  62; 6HR PCP: TRACE;

GARRISON         N/A     53  50  89 NW5       30.11F
6HR MIN TEMP:  52; 6HR MAX TEMP:  61;

WILLISTON      CLEAR     53  49  86 CALM      30.14R
6HR MIN TEMP:  51; 6HR MAX TEMP:  62;

DICKINSON      PTCLDY    54  45  71 W8        30.14F
6HR MIN TEMP:  50; 6HR MAX TEMP:  57;

HETTINGER      CLEAR     49  43  80 NW3       30.20S
6HR MIN TEMP:  43; 6HR MAX TEMP:  53;

$$

 *****  OTHER OBSERVATIONS NORTHEAST NORTH DAKOTA  *****

CITY           SKY/WX    TMP DP  RH WIND       PRES   REMARKS
WALHALLA       FAIR      64  59  82 MISG      29.96S
LANGDON        PTSUNNY   59  55  88 W12       30.02R
CAVALIER       FAIR      64  55  72 W9        29.96R
GRAFTON        FAIR      63  57  82 W14       29.97S
CANDO          CLOUDY    59  55  88 W10       30.05R
FORT TOTTEN      N/A     60  54  80 NW5       29.95S
ROLLA          FAIR      61  52  72 NW8       30.04S
RUGBY          NOT AVBL
 ***** THE ABOVE OBSERVATIONS ARE NON NWS ARE NOT QUALITY
        CONTROLLED AND MAY MIS-REPORT RAIN FOR SNOW...
$$

 *****  OTHER OBSERVATIONS SOUTHEAST NORTH DAKOTA *****

CITY           SKY/WX    TMP DP  RH WIND       PRES   REMARKS
COOPERSTOWN    NOT AVBL
VALLEY CITY    FAIR      61  55  82 W12       30.07R
OAKES            N/A     57  55  94 SW5       30.09R
GWINNER          N/A     57  55  94 W9        30.08S
SHEYENNE NWR     N/A     59  54  84 W7        29.95S
BUFFALO        NOT AVBL
WYNDMERE       NOT AVBL
 ***** THE ABOVE OBSERVATIONS ARE NON NWS ARE NOT QUALITY
       CONTROLLED AND MAY MIS-REPORT RAIN FOR SNOW...
$$

  *****  WEATHER ACROSS NORTHERN MINNESOTA  *****

CITY           SKY/WX    TMP DP  RH WIND       PRES   REMARKS
FLAG ISLAND    MOCLDY    61  55  82 W6        29.90R
WARROAD        PTCLDY    59  55  88 SW3       29.93S
ROSEAU         PTCLDY    61  55  82 W5        29.93S
HALLOCK        PTCLDY    57  55  94 CALM      29.95R
THF RVR FALLS  CLEAR     61  55  82 W8        29.98R
6HR MIN TEMP:  57; 6HR MAX TEMP:  63;

HALSTAD        NOT AVBL
FOSSTON        CLEAR     57  55  94 SW6       30.00S
BAUDETTE       PTCLDY    58  54  86 W3        29.92R
6HR MIN TEMP:  55; 6HR MAX TEMP:  66;

WASKISH        CLOUDY    64  59  82 SW5       29.95R
CROOKSTON      CLEAR     61  57  88 W8        29.99R
$$
  *****  WEATHER ACROSS CENTRAL AND WEST MINNESOTA  *****

CITY           SKY/WX    TMP DP  RH WIND       PRES   REMARKS
BEMIDJI        CLEAR     61  56  84 W8        29.98S
PARK RAPIDS    CLEAR     60  55  83 W7        30.01R
6HR MIN TEMP:  56; 6HR MAX TEMP:  63;

WADENA         CLEAR     59  55  88 W7        30.03R
DETROIT LAKES  CLEAR     63  55  77 W9        30.04R
MOORHEAD       CLEAR     61  55  82 W6        30.03S
FERGUS FALLS   CLEAR     57  55  94 CALM      30.06R
ELBOW LAKE     FAIR      58  54  86 W5        30.06S
6HR MIN TEMP:  56; 6HR MAX TEMP:  62;

MORRIS MN      CLEAR     63  55  77 W6        30.06S
STAPLES        CLEAR     61  54  77 W7        30.02R
WHEATON        CLEAR     63  54  72 W5        30.08S
$$
  *****  WEATHER ELSEWHERE ACROSS MINNESOTA  *****

CITY           SKY/WX    TMP DP  RH WIND       PRES   REMARKS
DULUTH         SUNNY     64  56  75 W13       29.94R
6HR MIN TEMP:  59; 6HR MAX TEMP:  64;

INTRNTL FALLS  SUNNY     57  54  89 W7        29.91R
6HR MIN TEMP:  56; 6HR MAX TEMP:  62;

ELY            SUNNY     63  55  77 W10       29.91R
CLOQUET        SUNNY     64  55  72 W8        29.96R
BRAINERD       CLEAR     64  56  75 W8        30.00R
6HR MIN TEMP:  62; 6HR MAX TEMP:  68;

HIBBING        SUNNY     63  56  78 W9        29.94R
6HR MIN TEMP:  59; 6HR MAX TEMP:  64;

ALEXANDRIA     CLEAR     63  54  72 W13       30.07R
6HR MIN TEMP:  61; 6HR MAX TEMP:  65;

SAINT CLOUD    CLEAR     63  54  72 W9        30.03R
6HR MIN TEMP:  60; 6HR MAX TEMP:  67;

MINNEAPOLIS    CLEAR     65  55  70 W7        30.04R
6HR MIN TEMP:  63; 6HR MAX TEMP:  70;

$$

  *****  WEATHER ACROSS SOUTH DAKOTA  *****

CITY           SKY/WX    TMP DP  RH WIND       PRES   REMARKS
SIOUX FALLS    PTCLDY    59  56  89 CALM      30.13S
6HR MIN TEMP:  57; 6HR MAX TEMP:  64;

BROOKINGS      CLEAR     61  54  77 CALM      30.15S
WATERTOWN      CLEAR     64  54  69 W7        30.13R
6HR MIN TEMP:  59; 6HR MAX TEMP:  64;

HURON          CLEAR     58  54  86 CALM      30.12S
6HR MIN TEMP:  56; 6HR MAX TEMP:  65;

SISSETON         N/A     62  54  74 W7        30.07R
ABERDEEN       CLEAR     57  51  80 SW3       30.11R
6HR MIN TEMP:  53; 6HR MAX TEMP:  59;

MITCHELL       CLEAR     58  56  93 S5        30.13S
PIERRE         CLEAR     54  49  83 CALM      30.13S
6HR MIN TEMP:  53; 6HR MAX TEMP:  68;

MOBRIDGE       CLEAR     55  55 100 CALM      30.13R
RAPID CITY     CLEAR     55  45  68 NW8       30.24S
6HR MIN TEMP:  53; 6HR MAX TEMP:  59;

$$

  *****  SOME WEATHER IN NEARBY STATES *****

CITY           SKY/WX    TMP DP  RH WIND       PRES   REMARKS
GLASGOW MT     CLEAR     56  51  84 CALM      30.17R
6HR MIN TEMP:  55; 6HR MAX TEMP:  66; 6HR PCP: TRACE;

GREAT FALLS MT CLEAR     48  43  82 W7        30.26R
6HR MIN TEMP:  48; 6HR MAX TEMP:  62;

CHEYENNE WY    CLEAR     54  45  71 W12       30.36R
6HR MIN TEMP:  53; 6HR MAX TEMP:  64;

SCOTTSBLUFF NE CLEAR     56  50  80 E5        30.25R
6HR MIN TEMP:  56; 6HR MAX TEMP:  71; 6HR PCP: TRACE;

OMAHA NE       CLEAR     65  60  84 E3        30.18R
6HR MIN TEMP:  64; 6HR MAX TEMP:  69;

DES MOINES IA  CLEAR     65  57  75 SW5       30.14S
6HR MIN TEMP:  64; 6HR MAX TEMP:  68;

DAVENPORT IA   SUNNY     63  59  87 W5        30.11R
6HR MIN TEMP:  61; 6HR MAX TEMP:  65;

CHICAGO IL     SUNNY     67  59  75 W8        30.05R
6HR MIN TEMP:  65; 6HR MAX TEMP:  70;

EAU CLAIRE WI  SUNNY     63  56  78 SW10      30.00R
6HR MIN TEMP:  60; 6HR MAX TEMP:  65;

LA CROSSE WI   SUNNY     69  56  62 S3        30.03S
6HR MIN TEMP:  65; 6HR MAX TEMP:  73;

$$

  *****  SOME NATIONAL WEATHER *****

CITY           SKY/WX    TMP DP  RH WIND       PRES   REMARKS



USA.gov is the U.S. government's official web portal to all federal, state and local government web resources and services.